EW6613 Weather Reports


time (UTC)temp
C
wind
direction
speed
KPH
gust
KPH
rain 1hr
cm
rain 24hr
cm
rain mn
cm
humidity
%
barometer
mb
20260906233049 13 9 0.0 0.0 0.00 0.71 0.48 97 1002.0
20260906231547 13 31 0.0 0.0 0.00 0.71 0.48 97 1002.1
20260906230110 13 39 0.0 0.0 0.00 0.71 0.48 97 1001.9
20260906224559 13 63 0.0 0.0 0.00 0.79 0.48 96 1002.0
20260906223046 13 58 0.0 0.0 0.00 0.79 0.48 96 1002.0
20260906221556 13 43 0.0 0.0 0.00 0.79 0.48 96 1001.9
20260906220044 13 93 0.0 0.0 0.00 0.79 0.48 96 1001.8
20260906214544 13 19 0.0 0.0 0.00 0.89 0.48 96 1001.9
20260906213044 13 65 0.0 0.0 0.00 0.89 0.48 97 1001.9
20260906211544 13 68 0.0 0.0 0.00 0.89 0.48 96 1001.8
20260906210042 13 14 0.0 0.0 0.00 0.89 0.48 96 1001.8
20260906204541 14 51 0.0 0.0 0.00 0.89 0.48 96 1001.8
20260906203041 14 14 0.0 0.0 0.00 0.89 0.48 97 1001.8
20260906201541 13 32 0.0 0.0 0.03 0.89 0.48 96 1001.9
20260906200039 13 60 0.0 0.0 0.03 0.89 0.48 96 1001.8
20260906194538 13 19 0.0 0.0 0.03 0.89 0.48 95 1001.9
20260906193038 14 43 0.0 0.0 0.03 0.89 0.48 94 1001.9
20260906191537 14 103 0.0 0.0 0.00 0.89 0.46 95 1001.8
20260906190043 14 352 0.0 0.0 0.00 0.89 0.46 95 1001.9
20260906184536 14 38 0.0 0.0 0.00 0.91 0.46 94 1002.0
20260906183103 14 50 0.0 0.0 0.00 0.91 0.46 94 1002.0
20260906181534 14 39 0.0 0.0 0.00 0.91 0.46 92 1002.1
20260906180039 14 38 0.0 0.0 0.00 0.91 0.46 92 1002.3
20260906174537 14 19 0.0 0.0 0.00 0.99 0.46 92 1002.3
20260906173032 14 80 0.0 0.0 0.00 0.99 0.46 93 1002.5
20260906171533 14 25 0.0 0.0 0.00 0.99 0.46 93 1002.5
20260906170036 13 52 0.0 0.0 0.00 0.99 0.46 94 1002.5
20260906164530 13 38 0.0 0.0 0.00 0.99 0.46 93 1002.4
20260906163033 13 71 0.0 0.0 0.00 0.99 0.46 93 1002.5
20260906161529 13 82 0.0 0.0 0.00 0.99 0.46 94 1002.5
20260906160030 13 65 0.0 0.0 0.00 0.99 0.46 94 1002.6
20260906154528 13 1 0.0 0.0 0.00 1.09 0.46 93 1002.6
20260906153027 14 37 0.0 0.0 0.00 1.09 0.46 93 1002.6
20260906151530 14 61 0.0 0.0 0.00 1.09 0.46 93 1002.6
20260906150026 14 54 0.0 0.0 0.00 1.09 0.46 93 1002.6
20260906144524 14 77 0.0 0.0 0.00 1.17 0.46 93 1002.7
20260906143023 14 91 0.0 0.0 0.00 1.17 0.46 92 1002.6
20260906141521 14 67 0.0 0.0 0.00 1.17 0.46 93 1002.7
20260906140033 13 25 0.0 0.0 0.00 1.17 0.46 93 1002.9
20260906134517 13 19 0.0 0.0 0.00 1.37 0.46 95 1002.8
20260906133015 13 353 0.0 0.0 0.00 1.37 0.46 94 1002.7
20260906131513 13 46 0.0 0.0 0.00 1.37 0.46 95 1002.6
20260906130019 13 62 0.0 0.0 0.00 1.37 0.46 95 1002.4
20260906124510 13 356 0.0 0.0 0.00 1.55 0.46 96 1002.5
20260906123012 13 54 0.0 0.0 0.00 1.55 0.46 96 1002.4
20260906121521 13 19 0.0 0.0 0.00 1.55 0.46 96 1002.4
20260906120007 13 27 0.0 0.0 0.00 1.55 0.46 97 1002.5
20260906114507 13 108 0.0 0.0 0.00 1.70 0.46 97 1002.4
20260906113022 12 60 0.0 0.0 0.00 1.70 0.46 97 1002.4
20260906111506 12 40 0.0 0.0 0.00 1.70 0.46 97 1002.4
20260906110005 12 84 0.0 0.0 0.00 2.08 0.46 98 1002.4
20260906104509 12 23 0.0 0.0 0.00 2.08 0.46 98 1002.5
20260906103004 12 38 0.0 0.0 0.00 2.08 0.46 98 1002.4
20260906101503 12 69 0.0 0.0 0.03 2.08 0.46 98 1002.6
20260906100006 12 44 0.0 0.0 0.03 2.59 0.46 98 1002.5
20260906094501 12 60 0.0 0.0 0.05 2.59 0.46 99 1002.4
20260906093102 12 70 0.0 0.0 0.08 2.59 0.46 99 1002.3
20260906091559 12 23 0.0 0.0 0.08 2.59 0.43 98 1002.2
20260906090107 12 27 0.0 0.0 0.10 2.59 0.43 98 1002.1
20260906084557 13 41 0.0 0.0 0.08 3.81 0.41 99 1002.1
20260906083055 13 19 0.0 0.0 0.08 3.78 0.38 99 1001.9
20260906081558 13 67 0.0 0.0 0.08 3.76 0.36 99 1002.0
20260906080054 13 54 0.0 0.0 0.08 3.73 0.33 99 1001.9
20260906074609 13 67 0.0 0.0 0.10 4.52 0.33 99 1002.0
20260906073053 13 102 0.0 0.0 0.10 4.50 0.30 99 1001.9
20260906071553 13 28 0.0 0.0 0.10 4.47 0.28 99 1001.8
20260906070052 13 35 0.0 0.0 0.10 4.47 0.25 99 1001.8
20260906064551 13 76 0.0 0.0 0.10 4.70 0.23 99 1001.8
20260906063051 13 66 0.0 0.0 0.08 4.67 0.20 99 1001.7
20260906061556 13 347 0.0 0.0 0.08 4.65 0.18 99 1001.9
20260906060048 13 9 0.0 0.0 0.08 4.65 0.15 98 1001.8
20260906054548 13 66 0.0 0.0 0.05 5.03 0.13 98 1001.8
20260906053048 13 27 0.0 0.0 0.05 5.03 0.13 98 1001.9
20260906051559 13 49 0.0 0.0 0.05 5.00 0.10 98 1001.9
20260906050049 13 32 0.0 0.0 0.03 4.98 0.08 98 1002.0
20260906044543 13 73 0.0 0.0 0.03 6.73 0.08 98 1002.1
20260906043042 13 58 0.0 0.0 0.05 6.73 0.08 98 1002.2
20260906041543 13 83 0.0 0.0 0.05 6.73 0.05 98 1002.2
20260906040044 13 37 0.0 0.0 0.05 6.73 0.05 98 1002.3
20260906034539 13 14 0.0 0.0 0.05 8.23 0.05 98 1002.3
20260906033045 13 48 0.0 0.0 0.08 8.20 0.05 98 1002.4
20260906031539 13 56 0.0 0.0 0.08 8.18 0.03 98 1002.6
20260906030032 13 48 0.0 0.0 0.08 8.15 0.00 98 1002.7
20260906024532 13 92 0.0 0.0 0.08 8.71 8.15 98 1002.7
20260906023033 13 14 0.0 0.0 0.05 8.69 8.13 98 1002.6
20260906021529 13 36 0.0 0.0 0.03 8.66 8.10 98 1002.6
20260906020028 13 319 0.0 0.0 0.00 8.64 8.08 97 1002.7
20260906014531 13 9 0.0 0.0 0.03 9.27 8.08 97 1002.8
20260906013028 13 14 0.0 0.0 0.05 9.27 8.08 97 1002.8
20260906011534 13 88 0.0 0.0 0.05 9.27 8.08 97 1002.6
20260906010025 13 67 0.0 0.0 0.05 9.27 8.08 97 1002.8
20260906004525 13 43 0.0 0.0 0.05 9.65 8.05 97 1002.6
20260906003024 13 28 0.0 0.0 0.08 9.63 8.05 98 1002.9
20260906001523 13 71 0.0 0.0 0.05 9.60 8.03 98 1002.8
20260906000022 13 74 0.0 0.0 0.08 9.60 8.03 98 1002.9
20260905234522 13 55 0.0 0.0 0.08 9.78 8.00 98 1002.8